sat.trackr.live / text

‹ back to catalog

STARLINK-35076

NORAD 65457 · 2025-194Z

PAYLOAD ACTIVE UNKNOWN

§ Identity

Operator
Country
US
Launch date
2025-09-03
Launch site
AFWTR
Launch vehicle
Mass (kg)
RCS (m²)

Purposes: comms

External: N2YO · Heavens-Above · Gunter

§ Orbital elements

Epoch: 2026-09-20T12:36:18.658944Z

Period
93.91 min
Inclination
97.2847°
Eccentricity
0.0003212
Mean motion
15.33458771 rev/d
Perigee alt
463.3 km
Apogee alt
467.7 km
Semi-major
6,843.6 km
B*
3.6111e-4
RAAN
113.1968°
Arg perigee
78.5201°
Mean anomaly
281.6403°
Rev number
5,907

§ Raw data

STARLINK-350761 65457U 25194Z   26263.52521596  .00011607  00000+0  36111-3 0  99912 65457  97.2847 113.1968 0003212  78.5201 281.6403 15.33458771 59075

JSON: /api/v1/satellites/65457 · /tle

For live sub-satellite position, see the globe view (requires WebGL).

§ Visibility from observer

Set your observer location to see the next 7 days of passes ≥ 10°. The values pass through the URL so the page stays shareable.

No JS? Fill the form by hand. The geolocation button needs JavaScript.